[Iaude] MPEC M26: 2024 MG [a=2.06,e=0.51,i=9.6,H=26.2]
    mpec at cfa.harvard.edu 
    mpec at cfa.harvard.edu
       
    Wed Jun 19 09:16:40 EDT 2024
    
    
  
M.P.E.C. 2024-M26                                 Issued 2024 June 19, 13:15 UT
     The Minor Planet Electronic Circulars contain information on unusual
         minor planets, routine data on comets and natural satellites,
         and occasional editorial announcements.  They are published
    on behalf of Division F of the International Astronomical Union by the
          Minor Planet Center, Smithsonian Astrophysical Observatory,
                          Cambridge, MA 02138, U.S.A.
			  
             Prepared using the Tamkin Foundation Computer Network
                              MPC at CFA.HARVARD.EDU
            URL https://www.minorplanetcenter.net/    ISSN 1523-6714
                                    2024 MG                                     
Observations:
     K24M00G*1C2024 06 17.39881121 13 53.519+09 23 48.12         21.22GVEM026G96
     K24M00G 1C2024 06 17.40395321 13 53.350+09 25 14.02         20.31GVEM026G96
     K24M00G 1C2024 06 17.40910921 13 53.188+09 26 39.30         19.89GVEM026G96
     K24M00G 1C2024 06 17.41425621 13 53.008+09 28 03.94         19.28GVEM026G96
     K24M00G mC2024 06 17.45386121 13 51.568+09 38 49.74         20.25GVEM026I52
     K24M00G mC2024 06 17.45428521 13 51.532+09 38 56.98         19.96GVEM026I52
     K24M00G mC2024 06 17.45472021 13 51.524+09 39 04.03               VEM026I52
     K24M00G mC2024 06 17.45514521 13 51.492+09 39 10.48               VEM026I52
     K24M00G KC2024 06 18.03278021 14 52.718+11 55 35.54         19.6 GVEM026J95
     K24M00G KC2024 06 18.04806321 14 52.742+11 58 53.51         19.7 GVEM026J95
     K24M00G KC2024 06 18.06336621 14 52.826+12 02 10.64         20.6 GVEM026J95
     K24M00G 6C2024 06 19.11022 21 15 56.73 +15 07 07.9          20.2 GVEM026Z84
     K24M00G 6C2024 06 19.11797 21 15 56.40 +15 08 16.3          20.5 GVEM026Z84
     K24M00G 6C2024 06 19.12830 21 15 55.93 +15 09 47.2          20.7 GVEM026Z84
     K24M00G KC2024 06 19.44026521 16 10.230+15 53 13.70               VEM026I52
     K24M00G KC2024 06 19.44248921 16 10.160+15 53 31.90         20.35GVEM026I52
     K24M00G KC2024 06 19.44471521 16 10.020+15 53 49.50         21.45GVEM026I52
Observer details:
G96 Mt. Lemmon Survey.  Observer T. Beuden.  Measurers T. Beuden, V. F.
    Carvajal, D. Fay, J. B. Fazekas, D. C. Fuls, A. R. Gibbs, A. D. Grauer, H.
    Groeller, J. K. Hogan, R. A. Kowalski, S. M. Larson, G. J. Leonard, D.
    Rankin, R. L. Seaman, F. C. Shelly, K. W. Wierzchos.  1.5-m reflector +
    10K CCD.
I52 Steward Observatory, Mt. Lemmon Station.  Observers G. J. Leonard, V. F.
    Carvajal.  Measurers T. Beuden, V. F. Carvajal, D. Fay, J. B. Fazekas, D.
    C. Fuls, A. R. Gibbs, A. D. Grauer, H. Groeller, J. K. Hogan, R. A.
    Kowalski, S. M. Larson, G. J. Leonard, D. Rankin, R. L. Seaman, F. C.
    Shelly, K. W. Wierzchos.  1.0-m prime focus + CCD.
J95 Great Shefford.  Observer P. Birtwhistle.  0.41-m f/6.3 Schmidt-Cassegrain
    + CCD.
Z84 Calar Alto-Schmidt.  Observers M. Micheli, R. Kresken.  Measurers R.
    Kresken, M. Micheli, F. Ocana, L. Conversi.  0.8-m f/3 Schmidt + CCD.
Orbital elements:
2024 MG                                                  Earth MOID = 0.0066 AU
Epoch 2024 Mar. 31.0 TT = JDT 2460400.5                 Veres                   
M 338.15740              (2000.0)            P               Q                  
n   0.33280910     Peri.  348.08882     -0.29976752     +0.93960166             
a   2.0622402      Node   264.29630     -0.86109487     -0.34102237             
e   0.5075716      Incl.    9.55610     -0.41067635     +0.02919709             
P   2.96           H   26.27          G   0.15           U   7                  
Residuals in seconds of arc
240617 G96  0.1+  0.2-    240617 I52  0.1+  0.1+    240619 Z84  0.4+  0.1+
240617 G96  0.0   0.3+    240617 I52  0.2-  0.3-    240619 Z84  0.2+  0.2+
240617 G96  0.1+  0.2+    240618 J95  0.2-  0.6-    240619 I52  0.5-  0.5-
240617 G96  0.0   0.1-    240618 J95  1.2-  0.4-    240619 I52  0.2+  0.1+
240617 I52  0.2+  0.3-    240618 J95  0.2-  0.2+    240619 I52  0.2-  0.1+
240617 I52  0.1-  0.1+    240619 Z84  0.3+  0.1+
Ephemeris:
2024 MG                  a,e,i = 2.06, 0.51, 10                  q = 1.0155
Date    TT    R. A. (2000) Decl.     Delta      r    Elong.  Phase     V
2024 05 20    09 26 46.6 -33 25 13   0.1213  1.0330    96.7    76.6    24.4
...
2024 06 04    09 28 59.6 -39 19 44   0.04802 1.0155    89.9    87.4    22.8
...
2024 06 12    11 14 54.5 -79 26 51   0.01035 1.0195   112.4    67.0    18.7
...
2024 06 18    21 14 40.4 +11 52 13   0.02559 1.0283   118.1    60.6    20.5
2024 06 19    21 15 46.9 +14 52 28   0.03051 1.0302   116.9    61.5    21.0
2024 06 20    21 16 33.2 +17 01 55   0.03548 1.0323   116.3    62.0    21.3
...
2024 06 26    21 18 00.4 +22 53 48   0.06566 1.0476   116.7    60.1    22.6
...
2024 07 04    21 16 24.8 +25 01 55   0.1059  1.0748   120.8    54.3    23.5
...
2024 07 19    21 09 18.2 +24 34 42   0.1815  1.1436   131.0    42.1    24.5
M. P. C. Staff               (C) Copyright 2024 MPC           M.P.E.C. 2024-M26
    
    
More information about the Iaude
mailing list